Regional Weather Roundup
Issued by NWS

Home | Current Version | Previous Version | Text Only | Print | Product List | Glossary On
Versions: 1 2 3 4 5 6 7 8 9 10 11 12 13 14 15 16 17 18 19 20 21 22 23 24 25 26 27 28 29 30 31 32 33 34 35 36 37 38 39 40 41 42 43 44 45 46 47 48 49 50
000
ASUS43 KTOP 220908
RWRKS

WEATHER ROUNDUP FOR KANSAS
NATIONAL WEATHER SERVICE GOODLAND KS
400 AM CDT TUE AUG 22 2017

NOTE:  "FAIR" INDICATES FEW OR NO CLOUDS BELOW 12,000 FEET WITH NO
SIGNIFICANT WEATHER AND/OR OBSTRUCTIONS TO VISIBILITY.

KSZ001>006-013>018-027>032-041>047-221000-
NORTHWEST KANSAS

CITY           SKY/WX    TMP DP  RH WIND       PRES   REMARKS
GOODLAND       CLOUDY    66  64  93 N12       30.20R
HAYS           MOCLDY    70  66  87 N14       30.04R
HILL CITY      CLEAR     68  65  90 N10       30.11R
RUSSELL        PTCLDY    70  66  87 N16G28    30.01R
$$

KSZ061>065-074>080-084>089-221000-
SOUTHWEST KANSAS

CITY           SKY/WX    TMP DP  RH WIND       PRES   REMARKS
DODGE CITY     CLEAR     71  66  84 SW9       30.05R
ELKHART          N/A     66  66 100 NW7         N/A
GARDEN CITY    PTCLDY    70  67  90 N16       30.09R
GREAT BEND     CLEAR     70  68  93 NW7       30.01R
LIBERAL        CLEAR     68  65  90 W7        30.09R
PRATT          MOCLDY    73  67  81 SW9       30.00F
$$

KSZ066>073-081>083-090>101-221000-
SOUTHEAST KANSAS

CITY           SKY/WX    TMP DP  RH WIND       PRES   REMARKS
CHANUTE        CLOUDY    79  73  82 SW18      29.96R
COFFEYVILLE    CLOUDY    80  73  79 SW9       29.97R
HUTCHINSON     TSTM      76  70  82 W8        29.98R
MEDICINE LODGE   N/A     72  68  87 MISG      29.99F
NEWTON         PTCLDY    77  69  76 SW13      29.97S
PARSONS        MOCLDY    78  73  84 S10       29.98S
WICHITA INTL   MOCLDY    76  71  85 SW10      29.97S
WICHITA JABRA  PTCLDY    78  71  79 SW14      29.97S
WICHITA MCCONL CLEAR     77  69  76 SW12      29.98S
WINFIELD       PTCLDY    78  70  76 S13       29.99F
$$

KSZ007>012-019>026-033>040-048>060-102>105-221000-
NORTHEAST KANSAS

CITY           SKY/WX    TMP DP  RH WIND       PRES   REMARKS
CONCORDIA      CLOUDY    69  67  93 NE12G20   30.03R
EMPORIA        CLOUDY    77  71  82 SW13      29.94R
LAWRENCE       LGT RAIN  67  67 100 SE13      29.98R
MANHATTAN      CLOUDY    69  67  93 E9G21     29.99R
MARYSVILLE     CLOUDY    66  64  94 E6        30.02R
OLATHE IND     TSTM      68  67  96 E23       30.00S FOG
OLATHE EXE     TSTM      65  65 100 E14G26    30.01R FOG
SALINA         PTCLDY    77  69  76 N7        29.97R
TOPEKA BILLARD LGT RAIN  67  67 100 E10       29.99R
TOPEKA FORBES  TSTM      68  66  93 E10       30.00R
$$



USA.gov is the U.S. government's official web portal to all federal, state and local government web resources and services.